Laurinburg-Maxton, NC

11:50 AM EDT on May 24, 2017 (GMT -0400)
Laurinburg-Maxton

Weather History for KMEB - March, 2014

Change the Weather History Date:

Wednesday, March 19, 2014

  Actual Average (KHFF) Record (KHFF)
Temperature  
Mean Temperature 44 °F -  
Max Temperature 52 °F 62 °F 78 °F (2012)
Min Temperature 37 °F 41 °F 26 °F (2007)
Degree Days  
Heating Degree Days 21    
Moisture  
Dew Point 40 °F    
Average Humidity 93    
Maximum Humidity 100    
Minimum Humidity 77    
Precipitation  
Precipitation 0.02 in - - ()
Sea Level Pressure  
Sea Level Pressure 30.12 in    
Wind  
Wind Speed 7 mph (NW)    
Max Wind Speed 12 mph    
Max Gust Speed -    
Visibility 7 miles    
Events Rain    
Averages and records for this station are not official NWS values.
T = Trace of Precipitation, MM = Missing Value Source: NWS Daily Summary

Daily Weather History Graph

Daily Weather History Graph

Search for Another Location

Airport or City:

Trip Planner

Search our weather history database for the weather conditions in past years. The results will help you decide how hot, cold, wet, or windy it might be!

Date:

Astronomy

Mar. 19, 2014 Rise Set
Actual Time 7:22 AM EDT 7:28 PM EDT
Civil Twilight 6:57 AM EDT 7:53 PM EDT
Nautical Twilight 6:28 AM EDT 8:22 PM EDT
Astronomical Twilight 5:58 AM EDT 8:52 PM EDT
Moon 10:36 PM EDT (3/19) 8:54 AM EDT (3/19)
Length of Visible Light 12h 56m
Length of Day
12h 05m
Waning Gibbous, 91% of the Moon is Illuminated
Mar 19
Waning Gibbous
Mar 23
Last Quarter
Mar 30
New
Apr 7
First Quarter
Apr 15
Full

Hourly Weather History & Observations

Time (EDT) Temp. Windchill Dew Point Humidity Pressure Visibility Wind Dir Wind Speed Gust Speed Precip Events Conditions
12:52 AM 39.0 °F 33.4 °F 37.0 °F 93% 30.16 in 10.0 mi NE 8.1 mph - N/A   Overcast
1:52 AM 39.0 °F 32.8 °F 37.0 °F 93% 30.16 in 10.0 mi North 9.2 mph - N/A   Overcast
2:52 AM 37.9 °F 31.5 °F 37.0 °F 97% 30.14 in 10.0 mi NNE 9.2 mph - N/A   Overcast
3:52 AM 39.0 °F 33.4 °F 37.0 °F 93% 30.15 in 9.0 mi NNE 8.1 mph - N/A   Overcast
4:40 AM 37.9 °F 31.5 °F 37.9 °F 100% 30.15 in 2.5 mi North 9.2 mph - N/A   Overcast
4:49 AM 37.4 °F 31.4 °F 37.4 °F 100% 30.15 in 2.5 mi North 8.1 mph - N/A   Overcast
4:52 AM 37.9 °F 31.5 °F 37.9 °F 100% 30.16 in 2.5 mi North 9.2 mph - N/A   Overcast
5:37 AM 37.9 °F 32.7 °F 37.9 °F 100% 30.15 in 3.0 mi NNE 6.9 mph - N/A   Overcast
5:52 AM 37.9 °F 30.9 °F 37.0 °F 97% 30.16 in 2.5 mi North 10.4 mph - 0.01 in Rain Light Rain
6:02 AM 37.9 °F 31.5 °F 37.0 °F 97% 30.16 in 3.0 mi North 9.2 mph - 0.00 in Rain Light Rain
6:52 AM 37.9 °F 32.1 °F 37.0 °F 97% 30.17 in 5.0 mi NNE 8.1 mph - 0.00 in   Overcast
7:26 AM 37.9 °F 33.5 °F 37.0 °F 97% 30.17 in 2.5 mi NNE 5.8 mph - N/A   Overcast
7:36 AM 37.9 °F 33.5 °F 37.0 °F 97% 30.17 in 4.0 mi NNE 5.8 mph - N/A   Overcast
7:42 AM 37.9 °F 32.7 °F 37.0 °F 97% 30.17 in 1.8 mi NNE 6.9 mph - N/A   Overcast
7:52 AM 37.9 °F 32.7 °F 37.0 °F 97% 30.17 in 1.0 mi NE 6.9 mph - 0.01 in Rain Light Rain
8:03 AM 37.9 °F 33.5 °F 37.9 °F 100% 30.17 in 3.0 mi NE 5.8 mph - 0.00 in   Overcast
8:52 AM 39.0 °F 34.8 °F 37.9 °F 96% 30.18 in 4.0 mi NNW 5.8 mph - 0.00 in   Overcast
9:24 AM 39.0 °F 34.0 °F 37.9 °F 96% 30.18 in 2.0 mi NNW 6.9 mph - N/A   Overcast
9:32 AM 39.0 °F 34.0 °F 39.0 °F 100% 30.19 in 1.5 mi NNW 6.9 mph - N/A   Overcast
9:52 AM 39.0 °F 33.4 °F 39.0 °F 100% 30.19 in 1.5 mi NNW 8.1 mph - N/A   Overcast
10:30 AM 39.9 °F 35.8 °F 39.9 °F 100% 30.19 in 2.0 mi NNW 5.8 mph - N/A   Overcast
10:52 AM 42.1 °F 39.2 °F 41.0 °F 96% 30.18 in 3.0 mi Variable 4.6 mph - N/A   Overcast
11:01 AM 41.0 °F - 39.9 °F 96% 30.17 in 5.0 mi Calm Calm - N/A   Overcast
11:14 AM 42.1 °F 40.2 °F 41.0 °F 96% 30.17 in 6.0 mi North 3.5 mph - N/A   Overcast
11:44 AM 42.1 °F 40.2 °F 41.0 °F 96% 30.17 in 9.0 mi NNW 3.5 mph - N/A   Overcast
11:52 AM 43.0 °F 40.3 °F 41.0 °F 93% 30.17 in 10.0 mi North 4.6 mph - N/A   Overcast
12:52 PM 44.1 °F - 42.1 °F 93% 30.15 in 10.0 mi Calm Calm - N/A   Overcast
1:52 PM 46.0 °F 43.9 °F 43.0 °F 89% 30.13 in 10.0 mi West 4.6 mph - N/A   Overcast
2:09 PM 48.0 °F - 43.0 °F 83% 30.11 in 10.0 mi WNW 4.6 mph - N/A   Overcast
2:52 PM 48.9 °F - 44.1 °F 83% 30.08 in 10.0 mi WSW 5.8 mph - N/A   Overcast
3:44 PM 51.1 °F - 44.1 °F 77% 30.05 in 10.0 mi SW 10.4 mph - N/A   Overcast
3:52 PM 51.1 °F - 45.0 °F 80% 30.04 in 10.0 mi SW 6.9 mph - N/A   Overcast
4:40 PM 50.0 °F - 44.1 °F 80% 30.04 in 10.0 mi West 11.5 mph - N/A   Overcast
4:52 PM 48.9 °F - 44.1 °F 83% 30.04 in 10.0 mi WSW 10.4 mph - N/A   Overcast
5:52 PM 48.0 °F - 44.1 °F 86% 30.04 in 10.0 mi WSW 8.1 mph - N/A   Overcast
6:52 PM 48.9 °F - 44.1 °F 83% 30.03 in 10.0 mi SW 4.6 mph - N/A   Overcast
7:52 PM 48.0 °F - 45.0 °F 89% 30.04 in 10.0 mi WSW 3.5 mph - N/A   Overcast
7:59 PM 48.0 °F - 45.0 °F 89% 30.04 in 10.0 mi WSW 4.6 mph - N/A   Overcast
8:52 PM 48.0 °F - 45.0 °F 89% 30.04 in 10.0 mi WSW 6.9 mph - N/A   Overcast
9:13 PM 46.0 °F 43.9 °F 44.1 °F 93% 30.03 in 10.0 mi SW 4.6 mph - N/A   Scattered Clouds
9:52 PM 44.1 °F 41.5 °F 43.0 °F 96% 30.03 in 10.0 mi South 4.6 mph - N/A   Clear
10:52 PM 44.1 °F 39.5 °F 44.1 °F 100% 30.03 in 10.0 mi SSW 8.1 mph - N/A   Clear
11:52 PM 42.1 °F 39.2 °F 42.1 °F 100% 30.03 in 6.0 mi WSW 4.6 mph - N/A   Clear